Location: Nashville
(36.1660°N, 86.7840°W)
Time: 06:30:15
(UTC-05:00)

MOZHAYETS 4 - Visible Passes

Search period start: 22 May 2022 00:00
Search period end: 01 June 2022 00:00
Orbit: 661 x 678 km, 98.2° (Epoch: 22 May)

Date Brightness Start Highest point End Pass type
(mag) Time Alt. Az. Time Alt. Az. Time Alt. Az.
22 May 10.5 01:53:31 10° E 01:55:27 13° ENE 01:57:23 10° NE visible
22 May 7.7 03:31:17 53° SW 03:31:58 59° W 03:36:31 10° NNW visible
23 May 9.6 02:25:59 21° ESE 02:27:40 27° ENE 02:31:32 10° NNE visible
23 May 8.8 04:04:10 25° WSW 04:04:39 25° W 04:08:29 10° NW visible
24 May 8.1 02:58:51 44° SE 03:00:03 60° ENE 03:04:37 10° N visible
24 May 9.7 04:37:03 11° W 04:37:29 11° W 04:38:45 10° WNW visible
25 May 10.5 01:54:05 10° E 01:56:05 13° ENE 01:58:04 10° NE visible
25 May 7.7 03:31:44 49° SW 03:32:36 58° W 03:37:10 10° NNW visible
26 May 9.6 02:26:25 20° ESE 02:28:18 27° ENE 02:32:10 10° NNE visible
26 May 8.8 04:04:37 24° WSW 04:05:17 25° W 04:09:06 10° NW visible
27 May 8.1 02:59:18 41° SE 03:00:41 61° ENE 03:05:15 10° N visible
27 May 9.7 04:37:29 11° W 04:38:06 11° W 04:39:18 10° WNW visible
28 May 10.5 01:54:38 10° E 01:56:41 13° ENE 01:58:43 10° NE visible
28 May 7.8 03:32:10 46° SSW 03:33:12 57° W 03:37:46 10° NNW visible
29 May 9.5 02:26:52 20° ESE 02:28:54 27° ENE 02:32:48 10° NNE visible
29 May 8.8 04:05:04 24° WSW 04:05:53 25° W 04:09:42 10° NW visible
30 May 8.1 02:59:45 39° SE 03:01:16 62° ENE 03:05:51 10° N visible
30 May 9.7 04:37:56 10° W 04:38:42 11° W 04:39:49 10° WNW visible
31 May 10.4 01:55:10 10° E 01:57:16 13° ENE 01:59:21 10° NE visible
31 May 7.8 03:32:37 43° SSW 03:33:48 57° W 03:38:22 10° NNW visible
